EN

Hourly Weather Boston

Today, 20 April, Tuesday

Time Temperature Precipitation Wind Pressure Humidity
00:00 +9°C° 0 mm 2 mps 757 mmHg 83%
01:00 +8°C° 0 mm 2 mps 757 mmHg 85%
02:00 +8°C° 0 mm 2 mps 757 mmHg 85%
03:00 +8°C° 0 mm 2 mps 757 mmHg 86%
04:00 +8°C° 0 mm 2 mps 757 mmHg 87%
05:00 +9°C° 0 mm 2 mps 757 mmHg 81%
06:00 +10°C° 0 mm 2 mps 757 mmHg 75%
07:00 +12°C° 0 mm 2 mps 758 mmHg 69%
08:00 +13°C° 0 mm 3 mps 758 mmHg 59%
09:00 +17°C° 0 mm 4 mps 757 mmHg 50%
10:00 +19°C° 0 mm 5 mps 757 mmHg 41%
11:00 +19°C° 0 mm 5 mps 757 mmHg 40%
12:00 +20°C° 0 mm 6 mps 757 mmHg 39%
13:00 +21°C° 0 mm 6 mps 757 mmHg 38%
14:00 +20°C° 0 mm 6 mps 757 mmHg 41%
15:00 +19°C° 0 mm 5 mps 758 mmHg 45%
16:00 +17°C° 0 mm 5 mps 758 mmHg 48%
17:00 +17°C° 0 mm 4 mps 759 mmHg 52%
18:00 +14°C° 0 mm 4 mps 759 mmHg 55%
19:00 +13°C° 0 mm 3 mps 760 mmHg 59%
20:00 +13°C° 0 mm 2 mps 760 mmHg 61%
21:00 +12°C° 0 mm 2 mps 760 mmHg 62%
22:00 +11°C° 0 mm 1 mps 761 mmHg 63%
23:00 +11°C° 0 mm 1 mps 761 mmHg 63%

Tomorrow, 21 April, Wednesday

Time Temperature Precipitation Wind Pressure Humidity
00:00 +11°C° 0 mm 1 mps 761 mmHg 62%
01:00 +10°C° 0 mm 0 mps 761 mmHg 61%
02:00 +10°C° 0 mm 1 mps 760 mmHg 62%
03:00 +10°C° 0 mm 1 mps 760 mmHg 64%
04:00 +9°C° 0 mm 2 mps 760 mmHg 65%
05:00 +10°C° 0 mm 3 mps 759 mmHg 69%
06:00 +10°C° 0 mm 3 mps 758 mmHg 72%
07:00 +11°C° 0 mm 4 mps 758 mmHg 76%
08:00 +13°C° 0 mm 5 mps 757 mmHg 69%
09:00 +15°C° 0 mm 6 mps 756 mmHg 61%
10:00 +17°C° 0 mm 7 mps 755 mmHg 53%
11:00 +18°C° 0.1 mm 7 mps 754 mmHg 52%
12:00 +18°C° 0.1 mm 7 mps 753 mmHg 51%
13:00 +20°C° 0.1 mm 8 mps 752 mmHg 51%
14:00 +18°C° 0 mm 7 mps 751 mmHg 53%
15:00 +18°C° 0 mm 7 mps 750 mmHg 55%
16:00 +18°C° 0 mm 7 mps 749 mmHg 58%
17:00 +16°C° 0.3 mm 7 mps 748 mmHg 66%
18:00 +14°C° 0.3 mm 6 mps 748 mmHg 74%
19:00 +11°C° 0.3 mm 6 mps 748 mmHg 82%
20:00 +9°C° 0.4 mm 6 mps 748 mmHg 80%
21:00 +5°C° 0.4 mm 6 mps 748 mmHg 79%
22:00 +3°C° 0.4 mm 6 mps 748 mmHg 78%
23:00 +2°C° 0 mm 6 mps 748 mmHg 75%

Day after tomorrow, 22 April, Thursday

Time Temperature Precipitation Wind Pressure Humidity
00:00 0°C° 0 mm 7 mps 749 mmHg 72%
01:00 -1°C° 0 mm 7 mps 749 mmHg 69%
02:00 -1°C° 0 mm 7 mps 749 mmHg 67%
03:00 -2°C° 0 mm 7 mps 749 mmHg 65%
04:00 -2°C° 0 mm 7 mps 750 mmHg 63%
05:00 -1°C° 0 mm 7 mps 750 mmHg 60%
06:00 -1°C° 0 mm 7 mps 751 mmHg 56%
07:00 0°C° 0 mm 7 mps 752 mmHg 53%
08:00 +1°C° 0 mm 8 mps 752 mmHg 47%
09:00 +2°C° 0 mm 8 mps 752 mmHg 41%
10:00 +4°C° 0 mm 8 mps 752 mmHg 35%
11:00 +4°C° 0 mm 8 mps 752 mmHg 36%
12:00 +4°C° 0 mm 8 mps 752 mmHg 36%
13:00 +5°C° 0 mm 8 mps 752 mmHg 37%
14:00 +5°C° 0 mm 8 mps 753 mmHg 40%
15:00 +5°C° 0 mm 8 mps 753 mmHg 42%
16:00 +4°C° 0 mm 8 mps 753 mmHg 45%
17:00 +4°C° 0 mm 7 mps 754 mmHg 46%
18:00 +3°C° 0 mm 7 mps 754 mmHg 48%
19:00 +3°C° 0 mm 6 mps 755 mmHg 50%
20:00 +2°C° 0 mm 6 mps 755 mmHg 53%
21:00 +2°C° 0 mm 6 mps 756 mmHg 56%
22:00 +1°C° 0 mm 6 mps 756 mmHg 59%
23:00 +1°C° 0 mm 6 mps 756 mmHg 60%

23 April, Friday

Time Temperature Precipitation Wind Pressure Humidity
00:00 +1°C° 0 mm 6 mps 756 mmHg 61%
01:00 +1°C° 0 mm 6 mps 756 mmHg 61%
02:00 +1°C° 0 mm 6 mps 755 mmHg 62%
03:00 +1°C° 0 mm 6 mps 755 mmHg 63%
04:00 +1°C° 0 mm 6 mps 755 mmHg 65%
05:00 +2°C° 0 mm 7 mps 755 mmHg 63%
06:00 +3°C° 0 mm 7 mps 755 mmHg 61%
07:00 +3°C° 0 mm 7 mps 755 mmHg 59%
08:00 +5°C° 0.1 mm 7 mps 755 mmHg 55%
09:00 +6°C° 0.1 mm 7 mps 755 mmHg 50%
10:00 +8°C° 0.1 mm 7 mps 755 mmHg 45%
11:00 +9°C° 0 mm 7 mps 755 mmHg 40%
12:00 +10°C° 0 mm 7 mps 755 mmHg 35%
13:00 +12°C° 0 mm 7 mps 755 mmHg 30%
14:00 +12°C° 0 mm 7 mps 755 mmHg 32%
15:00 +12°C° 0 mm 7 mps 755 mmHg 34%
16:00 +13°C° 0 mm 6 mps 756 mmHg 36%
17:00 +11°C° 0 mm 6 mps 756 mmHg 42%
18:00 +10°C° 0 mm 6 mps 757 mmHg 48%
19:00 +9°C° 0 mm 5 mps 757 mmHg 55%
20:00 +8°C° 0 mm 5 mps 758 mmHg 60%
21:00 +7°C° 0 mm 5 mps 758 mmHg 64%
22:00 +6°C° 0 mm 5 mps 758 mmHg 69%
23:00 +6°C° 0 mm 5 mps 758 mmHg 72%

24 April, Saturday

Time Temperature Precipitation Wind Pressure Humidity
00:00 +6°C° 0 mm 5 mps 758 mmHg 75%
01:00 +6°C° 0 mm 5 mps 758 mmHg 77%
02:00 +6°C° 0 mm 5 mps 758 mmHg 76%
03:00 +6°C° 0 mm 5 mps 759 mmHg 76%
04:00 +7°C° 0 mm 5 mps 759 mmHg 75%
05:00 +7°C° 0 mm 5 mps 759 mmHg 71%
06:00 +8°C° 0 mm 5 mps 760 mmHg 67%
07:00 +9°C° 0 mm 5 mps 760 mmHg 63%
08:00 +12°C° 0 mm 4 mps 760 mmHg 56%
09:00 +14°C° 0 mm 4 mps 760 mmHg 50%
10:00 +17°C° 0 mm 4 mps 760 mmHg 44%
11:00 +18°C° 0 mm 4 mps 760 mmHg 40%
12:00 +19°C° 0 mm 4 mps 760 mmHg 37%
13:00 +20°C° 0 mm 4 mps 760 mmHg 33%
14:00 +20°C° 0 mm 4 mps 760 mmHg 34%
15:00 +19°C° 0 mm 4 mps 760 mmHg 35%
16:00 +19°C° 0 mm 5 mps 760 mmHg 37%
17:00 +17°C° 0 mm 4 mps 760 mmHg 42%
18:00 +16°C° 0 mm 3 mps 760 mmHg 47%
19:00 +14°C° 0 mm 2 mps 760 mmHg 53%
20:00 +14°C° 0 mm 2 mps 760 mmHg 57%
21:00 +13°C° 0 mm 2 mps 761 mmHg 61%
22:00 +12°C° 0 mm 2 mps 761 mmHg 64%
23:00 +10°C° 0 mm 2 mps 760 mmHg 66%

25 April, Sunday

Time Temperature Precipitation Wind Pressure Humidity
00:00 +10°C° 0 mm 2 mps 760 mmHg 67%
01:00 +10°C° 0 mm 1 mps 760 mmHg 68%
02:00 +10°C° 0 mm 1 mps 759 mmHg 68%
03:00 +9°C° 0 mm 2 mps 759 mmHg 68%
04:00 +9°C° 0 mm 2 mps 758 mmHg 69%
05:00 +10°C° 0 mm 2 mps 758 mmHg 68%
06:00 +10°C° 0 mm 2 mps 757 mmHg 67%
07:00 +12°C° 0 mm 2 mps 757 mmHg 66%
08:00 +12°C° 0 mm 3 mps 756 mmHg 64%
09:00 +12°C° 0 mm 3 mps 756 mmHg 61%
10:00 +13°C° 0 mm 4 mps 755 mmHg 59%
11:00 +12°C° 1 mm 4 mps 754 mmHg 69%
12:00 +11°C° 1 mm 3 mps 753 mmHg 80%
13:00 +9°C° 1 mm 3 mps 752 mmHg 91%
14:00 +8°C° 2.7 mm 4 mps 751 mmHg 92%
15:00 +8°C° 2.7 mm 5 mps 749 mmHg 94%
16:00 +8°C° 2.7 mm 5 mps 748 mmHg 96%
17:00 +8°C° 4.6 mm 6 mps 747 mmHg 96%
18:00 +8°C° 4.6 mm 7 mps 746 mmHg 96%
19:00 +8°C° 4.6 mm 7 mps 745 mmHg 96%
20:00 +6°C° 3.1 mm 8 mps 745 mmHg 95%
21:00 +6°C° 3.1 mm 8 mps 745 mmHg 94%
22:00 +6°C° 3.1 mm 9 mps 745 mmHg 93%
23:00 +5°C° 3.1 mm 8 mps 745 mmHg 93%
Show more

We Need Your Consent

Meteoprog and our Service Providers may store and access personal data such as cookies, device identifiers or other similar technologies on your device and process such data to personalise content and ads, as well as provide social media features and to analyse the traffic.

  • Store and/or access information on your device

    Cookies, device identifiers or other information can be stored or accessed on your device for the purposes indicated above.

  • Personalised ads and content, ad and content measurement, audience insights, and products development

    Ads and content can be personalised based on a profile. More data can be added to better personalise ads and content. Ad and content performance can be measured. Insights about the audience who saw the ads and content can be derived. Such data can be used to develop or improve user’s experience, systems and software.

By clicking ‘I Agree’ you will allow the use of indicated cookies, device identifiers, web beacons or other similar technologies. Your settings can be changed in the browser on your device.

For certain purposes, legitimate interests may be relied on, rather than consent. You can read more about this in our Privacy and Cookie Policy.